Location: Chakepay
(13.3931°S, 72.1925°W)
Time: 18:48:38
(UTC+00:00)

Cosmos 1697 Rocket - Pass Details

Date: 15 November 2019
Orbit: 833 x 842 km, 71.0° (Epoch: 07 December)

Event Time Altitude Azimuth Distance (km) Brightness Sun altitude
Rises 09:42:49 0° 2° (N) 3,360 5.6 -7.4°
Reaches altitude 10° 09:45:24 10° 11° (N) 2,431 5.0 -6.8°
Maximum altitude 09:50:28 36° 76° (ENE) 1,291 4.3 -5.6°
Drops below altitude 10° 09:55:34 10° 142° (SE) 2,451 6.2 -4.5°
Sets 09:58:11 0° 150° (SSE) 3,390 6.7 -3.9°
